[[{"header":{"parameterUnit":"m.s-1","parameterCategory":1,"la1":30.2991,"la2":30.254,"lo1":-89.0895,"lo2":-89.0444,"dy":0.0017,"dx":0.0017,"nx":28,"ny":28,"refTime":"2024-06-20T09:00:00:Z","depth":0,"parameterNumber":2,"parameterNumberName":"U-component_of_WINDS"},"data":[0,0,0,0,0,0,0,0,0,0,0,0,0,0,0,0,0,0,0,0,0,0,0,0,0,0,0,0,0,0,0,0,0,0,0,0,0,0,0,0,0,0,0,0,0,0,0,0,0,0,0,0,0,0,0,0,0,0,-4.6575,-4.6574,0,-4.6529,-4.6528,-4.6527,-4.6319,-4.6314,-4.6309,-4.6304,-4.6263,-4.6266,-4.627,0,0,0,0,0,0,0,0,0,0,0,0,0,-4.6487,-4.649,-4.6575,-4.6574,-4.6574,-4.6529,-4.6528,-4.6527,-4.632,-4.6314,-4.6308,-4.6302,-4.6262,-4.6266,-4.627,0,0,0,0,0,0,0,0,0,0,0,0,0,-4.6492,-4.6491,-4.6575,-4.6464,-4.6454,-4.6529,-4.6528,-4.6527,-4.6321,-4.6314,-4.6306,-4.6299,-4.626,-4.6265,-4.627,-4.645,0,0,-4.6286,-4.6288,0,0,0,0,0,0,0,0,-4.6492,-4.6495,-4.6481,-4.6472,-4.6461,-4.6422,-4.6481,-4.6501,-4.6323,-4.6372,-4.6304,-4.6296,-4.6322,-4.6322,-4.6329,-4.6448,-4.6446,-4.6287,-4.629,-4.6292,-4.6294,0,0,0,0,0,0,0,-4.6492,-4.6496,-4.6556,-4.6481,-4.6469,-4.6418,-4.6411,-4.6484,-4.6389,-4.6367,-4.6352,-4.6349,-4.6315,-4.6325,-4.6327,-4.6445,-4.6287,-4.6291,-4.6294,-4.6296,-4.6707,-4.6714,0,0,0,0,0,0,-4.6506,-4.6497,-4.6558,-4.6555,-4.6458,-4.6426,-4.6418,-4.6442,-4.6387,-4.6372,-4.6355,-4.6339,-4.632,-4.6321,-4.6325,-4.6529,-4.6292,-4.6297,-4.63,-4.6699,-4.6709,-4.6717,0,0,0,0,0,0,-4.6505,-4.6514,-4.656,-4.6522,-4.6524,-4.6435,-4.6464,-4.6445,-4.6454,-4.6378,-4.6361,-4.6382,-4.6314,-4.6317,-4.6419,-4.6525,-4.6299,-4.6304,-4.669,-4.6702,-4.6713,-4.6942,0,0,0,0,0,0,-4.6504,-4.6515,-4.6581,-4.6525,-4.6527,-4.6655,-4.6471,-4.6449,-4.6463,-4.6442,-4.6399,-4.6385,-4.6308,-4.6413,-4.6425,-4.6528,-4.6308,-4.668,-4.6695,-4.6709,-4.6925,-4.6961,-4.6991,0,0,0,0,0,-4.6501,-4.6649,-4.6585,-4.6594,-4.6608,-4.6662,-4.6663,-4.6569,-4.6473,-4.6539,-4.649,-4.6387,-4.6512,-4.6425,-4.6436,-4.6544,-4.6673,-4.6691,-4.6708,-4.691,-4.6954,-4.699,0,0,0,0,0,0,-4.6722,-4.664,-4.6568,-4.6702,-4.669,-4.6626,-4.6707,-4.6619,-4.6635,-4.6615,-4.65,-4.6493,-4.6612,-4.6587,-4.6492,-4.6713,-4.6575,-4.6596,-4.6725,-4.6765,-4.6798,-4.6801,-4.6312,0,0,0,0,0,-4.6786,-4.6835,-4.6761,-4.6886,-4.6884,-4.6797,-4.6817,-4.6746,-4.673,-4.6724,-4.6683,-4.6673,-4.6709,-4.6736,-4.6765,-4.692,-4.6908,-4.7,-4.7033,-4.706,-4.708,-4.7159,-4.7199,-4.6775,-4.6775,-4.6774,0,0,-4.692,-4.6881,-4.6919,-4.693,-4.6912,-4.6966,-4.6794,-4.686,-4.6899,-4.6735,-4.6827,-4.6797,-4.6778,-4.6907,-4.6962,-4.6891,-4.7194,-4.7083,-4.7105,-4.7109,-4.7181,-4.7221,-4.7257,-4.6787,-4.6784,-4.6783,0,0,-4.719,-4.7166,-4.7266,-4.7252,-4.7226,-4.7167,-4.7192,-4.7141,-4.7114,-4.7205,-4.7082,-4.7128,-4.7194,-4.7185,-4.7189,-4.7455,-4.7361,-4.7468,-4.7641,-4.7719,-4.7753,-4.7782,-4.7876,-4.7912,-4.7488,-4.7488,-4.7489,0,-4.736,-4.7435,-4.733,-4.7402,-4.7411,-4.7262,-4.7364,-4.7355,-4.7343,-4.7352,-4.7272,-4.735,-4.7327,-4.7452,-4.7516,-4.7525,-4.755,-4.7473,-4.7756,-4.7784,-4.781,-4.7899,-4.7934,-4.7501,-4.75,-4.7499,-4.7497,0,-4.7644,-4.7699,-4.7783,-4.7771,-4.7789,-4.7877,-4.7786,-4.7817,-4.7745,-4.7695,-4.7789,-4.7756,-4.7776,-4.78,-4.7731,-4.7915,-4.7871,-4.7776,-4.7634,-4.7865,-4.7946,-4.798,-4.752,-4.7516,-4.7512,-4.7508,0,0,-4.8054,-4.7981,-4.8014,-4.8006,-4.7966,-4.8007,-4.8088,-4.8104,-4.8133,-4.8129,-4.8194,-4.8253,-4.8163,-4.8168,-4.8097,-4.8166,-4.8378,-4.8061,-4.8059,-4.8121,-4.8579,-4.8651,-4.8692,-4.8315,-4.8321,-4.8326,-4.858,0,-4.8311,-4.8442,-4.8349,-4.8497,-4.8545,-4.8404,-4.8474,-4.8459,-4.8414,-4.845,-4.8401,-4.8444,-4.8323,-4.8325,-4.8388,-4.834,-4.8469,-4.832,-4.8376,-4.8379,-4.8384,-4.8734,-4.881,-4.9051,-4.8611,-4.8617,-4.862,0,-4.8628,-4.8635,-4.8787,-4.8736,-4.8753,-4.8818,-4.8825,-4.8861,-4.884,-4.8803,-4.8809,-4.8719,-4.8795,-4.8656,-4.876,-4.8661,-4.8679,-4.8659,-4.8666,-4.8667,-4.8513,-4.8745,-4.9126,-4.9162,-4.867,-4.8666,-4.8662,0,-4.8911,-4.8959,-4.9054,-4.9053,-4.8996,-4.9044,-4.9023,-4.8995,-4.9011,-4.9018,-4.9027,-4.9045,-4.9055,-4.9071,-4.8989,-4.8896,-4.9104,-4.8959,-4.9076,-4.9079,-4.9126,-4.9124,-4.9515,-4.9139,-4.9139,-4.9138,-4.9137,0,-4.9207,-4.9306,-4.918,-4.924,-4.9346,-4.9239,-4.9347,-4.9312,-4.9288,-4.9339,-4.9219,-4.927,-4.9158,-4.9198,-4.9135,-4.923,-4.9236,-4.9209,-4.9191,-4.9219,-4.9223,-4.9229,-4.921,-4.9147,-4.9145,-4.9143,-4.9142,0,-4.954,-4.946,-4.9555,-4.9493,-4.948,-4.9561,-4.9508,-4.9561,-4.9508,-4.9574,-4.9583,-4.9501,-4.9541,-4.9461,-4.9492,-4.9449,-4.9583,-4.9539,-4.959,-4.9577,-4.9698,-4.9688,-5.0107,-5.0156,-4.975,-4.9754,-4.9757,0,-4.9734,-4.9806,-4.975,-4.9774,-4.9759,-4.9801,-4.9815,-4.9713,-4.9734,-4.9715,-4.9771,-4.9801,-4.9819,-4.9891,-4.9835,-4.9858,-4.9813,-4.9958,-4.9816,-4.9842,-4.9815,-4.9811,-4.9817,-4.9988,-4.9993,-4.9997,-5.0,0,-5.0087,-5.0043,-5.0068,-5.0079,-5.0099,-5.0104,-5.01,-5.0127,-5.0019,-5.0049,-5.0087,-5.0101,-5.0131,-5.0163,-5.0172,-5.0152,-5.006,-5.0046,-5.0074,-5.0103,-5.0129,-5.0116,-4.9669,-5.0036,-5.0033,-5.003,-5.0028,-5.0027,-5.0355,-5.0412,-5.0381,-5.0412,-5.0398,-5.0397,-5.0443,-5.0395,-5.0424,-5.0439,-5.0378,-5.043,-5.0408,-5.041,-5.04,-5.044,-5.0375,-5.0417,-5.0427,-5.0439,-5.0458,-5.0123,-5.0442,-5.0441,-5.044,-5.0439,-5.0438,0,-5.0701,-5.0673,-5.0703,-5.07,-5.0725,-5.0633,-5.0623,-5.0651,-5.0698,-5.0683,-5.0703,-5.0748,-5.0778,-5.0724,-5.0745,-5.0788,-5.0746,-5.0798,-5.0793,-5.079,-5.0515,-5.0488,-5.0831,-5.0831,-5.0831,-5.0831,-5.0831,-5.0831,-5.0883,-5.0973,-5.0926,-5.1009,-5.0981,-5.1029,-5.1032,-5.1031,-5.1018,-5.1072,-5.1095,-5.1059,-5.1029,-5.1047,-5.1071,-5.1055,-5.1068,-5.1134,-5.1104,-5.0848,-5.0809,-5.0773,-5.0746,-5.1138,-5.1139,-5.1374,-5.1376,-5.1378]},{"header":{"parameterUnit":"m.s-1","parameterCategory":1,"la1":30.2991,"la2":30.254,"lo1":-89.0895,"lo2":-89.0444,"dy":0.0017,"dx":0.0017,"nx":28,"ny":28,"refTime":"2024-06-20T09:00:00:Z","depth":0,"parameterNumber":3,"parameterNumberName":"V-component_of_WINDS"},"data":[0,0,0,0,0,0,0,0,0,0,0,0,0,0,0,0,0,0,0,0,0,0,0,0,0,0,0,0,0,0,0,0,0,0,0,0,0,0,0,0,0,0,0,0,0,0,0,0,0,0,0,0,0,0,0,0,0,0,-0.9451,-0.9452,0,-0.9593,-0.9595,-0.9597,-0.9692,-0.9692,-0.9693,-0.9693,-0.9839,-0.9842,-0.9845,0,0,0,0,0,0,0,0,0,0,0,0,0,-0.9259,-0.9262,-0.9451,-0.9453,-0.9454,-0.9593,-0.9595,-0.9597,-0.9691,-0.9692,-0.9693,-0.9694,-0.9838,-0.9841,-0.9845,0,0,0,0,0,0,0,0,0,0,0,0,0,-0.9366,-0.9263,-0.945,-0.9518,-0.9526,-0.9593,-0.9595,-0.9598,-0.9691,-0.9692,-0.9693,-0.9694,-0.9836,-0.9841,-0.9846,-0.9857,0,0,-0.9861,-0.9863,0,0,0,0,0,0,0,0,-0.936,-0.9373,-0.9506,-0.9514,-0.9522,-0.9626,-0.9581,-0.9684,-0.9691,-0.9628,-0.9693,-0.9695,-0.9767,-0.9778,-0.9802,-0.9863,-0.987,-0.9861,-0.9864,-0.9866,-0.9868,0,0,0,0,0,0,0,-0.9352,-0.9367,-0.9507,-0.9508,-0.9518,-0.9541,-0.9557,-0.9601,-0.969,-0.9634,-0.9641,-0.9657,-0.9771,-0.9797,-0.9806,-0.9872,-0.9861,-0.9866,-0.9869,-0.987,-0.9948,-0.9947,0,0,0,0,0,0,-0.9334,-0.9361,-0.9503,-0.9511,-0.9442,-0.9544,-0.9562,-0.9591,-0.969,-0.9706,-0.9656,-0.9661,-0.9788,-0.9801,-0.9812,-0.983,-0.9866,-0.9871,-0.9874,-0.9949,-0.9948,-0.9947,0,0,0,0,0,0,-0.933,-0.9346,-0.9497,-0.9438,-0.9459,-0.9546,-0.9578,-0.9594,-0.962,-0.9707,-0.9723,-0.9666,-0.979,-0.9805,-0.9845,-0.9837,-0.9873,-0.9878,-0.995,-0.9949,-0.9947,-0.9867,0,0,0,0,0,0,-0.9324,-0.9344,-0.9349,-0.9438,-0.9462,-0.9527,-0.9578,-0.9596,-0.9628,-0.9636,-0.972,-0.9735,-0.9792,-0.9837,-0.9849,-0.9844,-0.9881,-0.9951,-0.9949,-0.9948,-0.9871,-0.9863,-0.9857,0,0,0,0,0,-0.9317,-0.9321,-0.9349,-0.9366,-0.947,-0.9527,-0.9541,-0.9605,-0.9627,-0.9633,-0.9689,-0.9733,-0.9835,-0.984,-0.9855,-0.9851,-0.9952,-0.995,-0.9948,-0.9874,-0.9865,-0.9857,0,0,0,0,0,0,-0.923,-0.9334,-0.9366,-0.9399,-0.9453,-0.9543,-0.9552,-0.9594,-0.9643,-0.9648,-0.9726,-0.9744,-0.9776,-0.9818,-0.9821,-0.9866,-0.9899,-0.99,-0.9838,-0.983,-0.9823,-0.9811,-0.9885,0,0,0,0,0,-0.9214,-0.9252,-0.9341,-0.9361,-0.9387,-0.9464,-0.9491,-0.9537,-0.9596,-0.9619,-0.9678,-0.9734,-0.9779,-0.9807,-0.9853,-0.9878,-0.9897,-0.9882,-0.9875,-0.9869,-0.9868,-0.9884,-0.9878,-0.9941,-0.9941,-0.9941,0,0,-0.9183,-0.9244,-0.9263,-0.9345,-0.9393,-0.9429,-0.9483,-0.952,-0.9548,-0.9625,-0.9666,-0.9711,-0.9778,-0.981,-0.9827,-0.9846,-0.9856,-0.9866,-0.9861,-0.9864,-0.9881,-0.9875,-0.987,-0.9939,-0.994,-0.994,0,0,-0.9144,-0.9195,-0.9217,-0.9263,-0.9334,-0.9386,-0.939,-0.9474,-0.9507,-0.9549,-0.9607,-0.9642,-0.9717,-0.9763,-0.9795,-0.9773,-0.9815,-0.9786,-0.9748,-0.9762,-0.9758,-0.9754,-0.9745,-0.9741,-0.9785,-0.9785,-0.9785,0,-0.9096,-0.9154,-0.9223,-0.9256,-0.929,-0.9361,-0.9384,-0.9426,-0.9508,-0.9529,-0.9549,-0.9645,-0.9696,-0.9739,-0.9733,-0.9758,-0.9765,-0.9776,-0.9753,-0.9749,-0.9747,-0.9739,-0.9736,-0.9781,-0.9781,-0.9782,-0.9782,0,-0.909,-0.9129,-0.9139,-0.9216,-0.9251,-0.9279,-0.9351,-0.9379,-0.942,-0.9469,-0.9511,-0.9574,-0.9634,-0.9648,-0.9689,-0.9696,-0.9706,-0.9738,-0.9772,-0.9735,-0.973,-0.9727,-0.9775,-0.9776,-0.9778,-0.9779,0,0,-0.9001,-0.9116,-0.9118,-0.9153,-0.9237,-0.9268,-0.9298,-0.9357,-0.9378,-0.9432,-0.9459,-0.9521,-0.9552,-0.9589,-0.9636,-0.9648,-0.9625,-0.9679,-0.9682,-0.9666,-0.9636,-0.9611,-0.9606,-0.9654,-0.9654,-0.9653,-0.963,0,-0.8974,-0.9033,-0.9095,-0.9132,-0.9168,-0.9236,-0.9263,-0.9316,-0.9363,-0.94,-0.9452,-0.9494,-0.9532,-0.9554,-0.957,-0.9624,-0.962,-0.9627,-0.9679,-0.968,-0.9659,-0.9604,-0.9577,-0.9552,-0.9629,-0.9628,-0.9628,0,-0.8951,-0.9001,-0.9041,-0.912,-0.9138,-0.916,-0.9218,-0.9254,-0.9315,-0.9348,-0.9389,-0.9439,-0.9474,-0.9504,-0.9553,-0.9557,-0.9582,-0.9612,-0.9612,-0.9619,-0.9651,-0.9608,-0.9546,-0.9542,-0.9625,-0.9626,-0.9626,0,-0.888,-0.8958,-0.8992,-0.902,-0.9114,-0.9128,-0.9167,-0.923,-0.9261,-0.9312,-0.9332,-0.9386,-0.9416,-0.9456,-0.9519,-0.9536,-0.9561,-0.9597,-0.9589,-0.9587,-0.9591,-0.9589,-0.9531,-0.9607,-0.9607,-0.9608,-0.9608,0,-0.8843,-0.8865,-0.8961,-0.8982,-0.9008,-0.9079,-0.9103,-0.9148,-0.9204,-0.9234,-0.9297,-0.9323,-0.9405,-0.9442,-0.9492,-0.9524,-0.9537,-0.9564,-0.9577,-0.9558,-0.9555,-0.9575,-0.9578,-0.9607,-0.9607,-0.9607,-0.9607,0,-0.8769,-0.8835,-0.8876,-0.896,-0.8982,-0.8997,-0.907,-0.9092,-0.9142,-0.9179,-0.9192,-0.927,-0.9317,-0.9384,-0.945,-0.9484,-0.9508,-0.953,-0.9487,-0.9495,-0.9483,-0.9482,-0.9435,-0.9432,-0.951,-0.9509,-0.9508,0,-0.8741,-0.8759,-0.8845,-0.887,-0.8907,-0.8946,-0.8978,-0.9049,-0.9079,-0.9151,-0.9164,-0.9215,-0.926,-0.933,-0.9393,-0.9444,-0.9466,-0.9446,-0.9475,-0.9455,-0.9465,-0.9463,-0.9465,-0.9439,-0.9438,-0.9437,-0.9436,0,-0.8683,-0.8715,-0.8758,-0.8812,-0.8848,-0.8894,-0.8943,-0.896,-0.9041,-0.9072,-0.912,-0.9155,-0.9222,-0.9272,-0.9331,-0.9372,-0.9417,-0.9427,-0.9427,-0.9408,-0.9383,-0.9395,-0.9468,-0.9427,-0.9428,-0.9429,-0.9429,-0.943,-0.8631,-0.865,-0.8713,-0.8759,-0.8803,-0.8847,-0.8872,-0.8925,-0.8966,-0.9027,-0.9066,-0.9112,-0.9173,-0.9257,-0.9296,-0.9332,-0.9351,-0.9352,-0.9352,-0.9351,-0.9344,-0.9377,-0.9343,-0.9344,-0.9344,-0.9344,-0.9345,0,-0.8577,-0.862,-0.8662,-0.8728,-0.8764,-0.8803,-0.886,-0.8887,-0.8926,-0.8979,-0.9021,-0.9076,-0.9124,-0.919,-0.9243,-0.926,-0.9282,-0.9271,-0.927,-0.9279,-0.9325,-0.9319,-0.9252,-0.9252,-0.9252,-0.9252,-0.9252,-0.9252,-0.8552,-0.8586,-0.8624,-0.868,-0.8724,-0.8769,-0.8798,-0.8839,-0.8881,-0.8939,-0.8979,-0.9022,-0.908,-0.9138,-0.9184,-0.9202,-0.9218,-0.9201,-0.9225,-0.9267,-0.9276,-0.9283,-0.9278,-0.9204,-0.9204,-0.9176,-0.9176,-0.9176]}]]